GW0451 Weather Reports


Display with metric or nautical units.
time (UTC)temp
F
wind
direction
speed
MPH
gust
MPH
rain 1hr
in
rain 24hr
in
rain mn
in
humidity
%
barometer
mb
20260509222540 61 216 3.0 8.0 0.00 0.31 0.30 76 1008.6
20260509222040 61 196 2.0 9.0 0.00 0.31 0.30 76 1008.5
20260509221551 60 150 3.0 9.0 0.00 0.31 0.30 77 1008.7
20260509221041 60 0 1.0 6.0 0.00 0.31 0.30 78 1008.7
20260509220540 60 207 1.0 6.0 0.00 0.31 0.30 79 1008.8
20260509220100 59 171 2.0 10.0 0.00 0.31 0.30 78 1008.8
20260509215541 59 171 3.0 10.0 0.00 0.31 0.30 80 1008.9
20260509215043 59 159 2.0 7.0 0.00 0.31 0.30 81 1008.9
20260509214547 59 207 2.0 7.0 0.00 0.31 0.30 82 1008.8
20260509214040 58 177 3.0 7.0 0.00 0.31 0.30 83 1008.9
20260509213541 58 0 1.0 8.0 0.00 0.31 0.30 83 1008.9
20260509213053 58 153 1.0 8.0 0.00 0.31 0.30 84 1008.9
20260509212540 57 156 3.0 7.0 0.00 0.31 0.30 84 1008.9
20260509212040 57 163 2.0 7.0 0.00 0.31 0.30 85 1008.9
20260509211554 57 149 2.0 6.0 0.00 0.31 0.30 86 1009.0
20260509211041 57 175 2.0 5.0 0.00 0.31 0.30 87 1009.1
20260509210544 56 215 1.0 5.0 0.00 0.31 0.30 87 1009.2
20260509210058 56 212 1.0 4.0 0.01 0.31 0.30 88 1009.1
20260509205540 56 175 0.0 3.0 0.01 0.31 0.30 88 1009.1
20260509205040 56 207 0.0 6.0 0.01 0.31 0.30 88 1009.3
20260509204558 55 0 0.0 6.0 0.01 0.31 0.30 88 1009.3
20260509204041 55 232 3.0 6.0 0.01 0.31 0.30 88 1009.5
20260509203542 55 261 3.0 6.0 0.01 0.31 0.30 88 1009.4
20260509203047 55 164 2.0 5.0 0.02 0.31 0.30 89 1009.4
20260509202540 55 172 1.0 5.0 0.02 0.31 0.30 89 1009.4
20260509202039 55 244 1.0 4.0 0.02 0.31 0.30 89 1009.5
20260509201548 55 0 1.0 6.0 0.02 0.31 0.30 89 1009.6
20260509201040 55 221 1.0 6.0 0.02 0.31 0.30 90 1009.5
20260509200541 55 238 0.0 4.0 0.02 0.31 0.30 90 1009.7
20260509200045 55 0 1.0 7.0 0.01 0.30 0.29 90 1009.6
20260509195540 54 186 1.0 8.0 0.01 0.30 0.29 89 1009.7
20260509195042 54 223 2.0 8.0 0.01 0.30 0.29 89 1009.7
20260509194554 54 237 2.0 8.0 0.02 0.30 0.29 89 1009.8
20260509194040 54 0 1.0 9.0 0.02 0.30 0.29 90 1009.8
20260509193540 54 179 4.0 9.0 0.02 0.30 0.29 90 1009.8
20260509193049 54 224 2.0 6.0 0.01 0.29 0.28 90 1009.9
20260509192543 54 182 1.0 4.0 0.02 0.29 0.28 90 1009.9
20260509192039 54 0 1.0 6.0 0.02 0.29 0.28 90 1009.9
20260509191600 54 154 1.0 6.0 0.03 0.29 0.28 90 1009.9
20260509191046 54 263 1.0 6.0 0.03 0.29 0.28 91 1009.9
20260509190540 53 163 1.0 4.0 0.04 0.29 0.28 91 1010.0
20260509190053 53 188 1.0 5.0 0.05 0.29 0.28 90 1009.9
20260509185540 53 219 1.0 5.0 0.07 0.30 0.28 90 1010.0
20260509185037 53 0 1.0 5.0 0.08 0.30 0.28 90 1010.0
20260509184544 53 167 1.0 6.0 0.09 0.29 0.27 90 1010.0
20260509184040 53 158 1.0 6.0 0.10 0.29 0.27 90 1010.2
20260509183540 53 221 1.0 5.0 0.10 0.29 0.27 89 1010.2
20260509183047 53 202 0.0 5.0 0.11 0.29 0.27 89 1010.2
20260509182540 53 157 1.0 5.0 0.11 0.28 0.26 89 1010.3
20260509182039 53 211 2.0 5.0 0.11 0.28 0.26 89 1010.4
20260509181546 53 247 1.0 4.0 0.11 0.27 0.25 89 1010.4
20260509181040 53 239 1.0 7.0 0.11 0.26 0.24 88 1010.4
20260509180543 53 178 1.0 15.0 0.12 0.26 0.24 88 1010.5
20260509180046 53 198 3.0 15.0 0.11 0.25 0.23 88 1010.5
20260509175539 53 184 5.0 13.0 0.09 0.24 0.21 88 1010.7
20260509175044 53 190 4.0 13.0 0.08 0.22 0.19 88 1010.6
20260509174602 53 144 1.0 10.0 0.07 0.21 0.18 88 1010.5
20260509174039 53 120 5.0 11.0 0.06 0.20 0.17 88 1010.4
20260509173538 53 163 4.0 11.0 0.06 0.20 0.17 88 1010.4
20260509173058 53 165 3.0 9.0 0.06 0.19 0.16 88 1010.5
20260509172540 53 166 1.0 8.0 0.05 0.18 0.15 88 1010.5
20260509172039 53 162 2.0 8.0 0.05 0.18 0.15 88 1010.6
20260509171551 53 161 2.0 7.0 0.05 0.17 0.14 88 1010.6
20260509171039 53 237 2.0 7.0 0.05 0.16 0.13 88 1010.6
20260509170540 53 0 1.0 7.0 0.04 0.15 0.12 88 1010.5
20260509170050 53 210 2.0 7.0 0.05 0.15 0.12 88 1010.6
20260509165539 53 173 1.0 8.0 0.05 0.15 0.12 88 1010.6
20260509165039 53 178 3.0 8.0 0.05 0.14 0.11 88 1010.4
20260509164548 53 188 2.0 8.0 0.05 0.14 0.11 87 1010.4
20260509164039 53 217 1.0 7.0 0.05 0.14 0.11 88 1010.4
20260509163541 53 155 3.0 8.0 0.06 0.14 0.11 87 1010.6
20260509163100 53 175 2.0 8.0 0.05 0.13 0.10 87 1010.7
20260509162540 53 152 1.0 10.0 0.05 0.13 0.10 87 1010.7
20260509162040 53 163 2.0 10.0 0.05 0.13 0.10 87 1010.8
20260509161552 53 191 3.0 9.0 0.04 0.12 0.09 86 1010.9
20260509161041 53 214 3.0 9.0 0.04 0.11 0.08 86 1010.8
20260509160539 53 139 1.0 9.0 0.04 0.11 0.08 86 1010.9
20260509160057 53 177 3.0 9.0 0.03 0.10 0.07 86 1010.9
20260509155539 54 244 3.0 9.0 0.03 0.10 0.07 85 1011.0
20260509155039 54 173 2.0 9.0 0.02 0.09 0.06 86 1011.0
20260509154559 54 0 2.0 9.0 0.02 0.09 0.06 85 1011.0
20260509154039 54 205 3.0 9.0 0.02 0.09 0.06 85 1011.0
20260509153539 54 203 4.0 9.0 0.01 0.08 0.05 85 1011.0
20260509153049 54 182 3.0 9.0 0.02 0.08 0.05 85 1011.0
20260509152537 54 229 2.0 11.0 0.02 0.08 0.05 85 1010.9
20260509152040 54 168 3.0 11.0 0.02 0.08 0.05 85 1011.0
20260509151545 54 149 2.0 6.0 0.02 0.08 0.05 85 1010.9
20260509151040 53 0 2.0 6.0 0.01 0.07 0.04 85 1010.8
20260509150538 53 205 2.0 6.0 0.01 0.07 0.04 85 1010.8
20260509150049 53 0 1.0 6.0 0.01 0.07 0.04 85 1010.8
20260509145539 53 174 0.0 3.0 0.01 0.07 0.04 86 1010.7
20260509145039 53 0 1.0 3.0 0.01 0.07 0.04 87 1010.8
20260509144602 53 0 0.0 3.0 0.01 0.07 0.04 87 1010.8
20260509144040 53 0 1.0 3.0 0.02 0.07 0.04 87 1010.8
20260509143537 53 241 0.0 4.0 0.02 0.07 0.04 88 1010.9
20260509143053 53 180 1.0 4.0 0.01 0.06 0.03 88 1010.9
20260509142539 53 231 0.0 6.0 0.01 0.06 0.03 88 1010.9
20260509142038 53 232 1.0 6.0 0.02 0.06 0.03 89 1010.9
20260509141549 53 281 0.0 2.0 0.02 0.06 0.03 90 1010.7
20260509141040 53 347 0.0 2.0 0.02 0.06 0.03 90 1010.7
20260509140539 52 0 0.0 2.0 0.02 0.06 0.03 90 1010.7
20260509140058 52 0 0.0 2.0 0.02 0.06 0.03 90 1010.3
20260509135540 52 219 0.0 2.0 0.02 0.06 0.03 90 1010.3
20260509135039 52 0 0.0 2.0 0.02 0.06 0.03 89 1010.3
20260509134553 52 0 0.0 2.0 0.02 0.06 0.03 89 1010.6
20260509134044 52 219 0.0 2.0 0.01 0.05 0.02 89 1010.7
20260509133540 52 0 0.0 2.0 0.01 0.05 0.02 88 1010.7
20260509133047 52 0 0.0 3.0 0.01 0.05 0.02 88 1010.8
20260509132540 52 0 1.0 3.0 0.01 0.05 0.02 88 1010.8
20260509132039 52 0 0.0 3.0 0.00 0.04 0.01 88 1010.9
20260509131554 52 250 1.0 3.0 0.00 0.04 0.01 89 1010.9
20260509131042 52 237 0.0 3.0 0.00 0.04 0.01 89 1010.9
20260509130539 52 241 0.0 3.0 0.00 0.04 0.01 89 1010.9
20260509130103 52 0 0.0 0.0 0.00 0.04 0.01 89 1010.9
20260509125540 52 0 0.0 0.0 0.00 0.04 0.01 89 1010.8
20260509125040 52 0 0.0 0.0 0.00 0.04 0.01 89 1010.8
20260509124600 51 0 0.0 3.0 0.00 0.04 0.01 90 1010.9
20260509124039 51 0 0.0 3.0 0.00 0.04 0.01 90 1010.7
20260509123539 51 0 1.0 3.0 0.00 0.04 0.01 90 1010.7
20260509123048 51 273 0.0 3.0 0.00 0.04 0.01 90 1010.5
20260509122539 51 0 0.0 3.0 0.00 0.04 0.01 90 1010.4
20260509122039 51 273 1.0 3.0 0.00 0.04 0.01 91 1010.5
20260509121602 51 277 0.0 3.0 0.00 0.04 0.01 91 1010.5
20260509121038 51 271 0.0 2.0 0.00 0.04 0.01 91 1010.4
20260509120543 51 0 0.0 3.0 0.00 0.04 0.01 92 1010.4
20260509120051 51 0 1.0 3.0 0.00 0.04 0.01 92 1010.5
20260509115539 50 0 0.0 3.0 0.00 0.04 0.01 92 1010.4
20260509115039 50 0 1.0 3.0 0.00 0.04 0.01 92 1010.3
20260509114552 50 0 0.0 1.0 0.01 0.04 0.01 92 1010.2
20260509114039 50 0 0.0 0.0 0.01 0.04 0.01 92 1010.1
20260509113541 50 0 0.0 0.0 0.01 0.04 0.01 91 1010.1
20260509113055 50 0 0.0 2.0 0.01 0.04 0.01 91 1010.1
20260509112539 49 0 0.0 2.0 0.01 0.04 0.01 91 1010.1
20260509112039 49 0 0.0 2.0 0.01 0.04 0.01 91 1010.2
20260509111555 49 175 0.0 2.0 0.01 0.04 0.01 91 1010.3
20260509111040 49 0 0.0 2.0 0.01 0.04 0.01 91 1010.2
20260509110541 49 0 0.0 0.0 0.01 0.04 0.01 91 1010.2
20260509110045 49 0 0.0 1.0 0.01 0.04 0.01 91 1010.2
20260509105544 49 0 0.0 2.0 0.01 0.04 0.01 91 1010.3
20260509105059 49 0 0.0 2.0 0.01 0.04 0.01 91 1010.3
20260509104551 49 0 0.0 1.0 0.00 0.03 0.00 91 1010.4
20260509104039 49 0 0.0 1.0 0.00 0.03 0.00 91 1010.6
20260509103537 49 0 0.0 2.0 0.00 0.03 0.00 91 1010.5
20260509103050 49 0 0.0 3.0 0.00 0.03 0.00 91 1010.5
20260509102539 49 0 0.0 3.0 0.00 0.03 0.00 91 1010.5
20260509102040 49 271 0.0 2.0 0.00 0.03 0.00 91 1010.5
20260509101554 49 0 0.0 2.0 0.00 0.03 0.00 91 1010.5
20260509101039 49 0 0.0 2.0 0.00 0.03 0.00 91 1010.4
20260509100539 49 0 0.0 2.0 0.00 0.03 0.00 91 1010.4
20260509100051 49 195 0.0 3.0 0.00 0.03 0.00 91 1010.5
20260509095540 49 195 1.0 3.0 0.00 0.03 0.00 91 1010.6
20260509095042 49 195 0.0 3.0 0.00 0.03 0.00 91 1010.6
20260509094552 49 202 1.0 3.0 0.00 0.03 0.00 91 1010.7
20260509094040 49 155 0.0 7.0 0.00 0.03 0.00 91 1010.6
20260509093540 49 282 2.0 7.0 0.00 0.03 0.00 91 1010.7
20260509093051 49 0 1.0 3.0 0.00 0.03 0.00 92 1010.4
20260509092539 49 286 0.0 3.0 0.00 0.03 0.00 92 1010.6
20260509092039 49 0 0.0 4.0 0.00 0.03 0.00 92 1010.5
20260509091553 49 0 1.0 4.0 0.00 0.03 0.00 92 1010.6
20260509091039 49 0 0.0 1.0 0.00 0.03 0.00 91 1010.3
20260509090540 49 0 0.0 3.0 0.00 0.03 0.00 92 1010.4
20260509090104 49 0 0.0 3.0 0.00 0.03 0.00 92 1010.5
20260509085539 49 0 0.0 2.0 0.00 0.03 0.00 92 1010.5
20260509085039 49 0 0.0 0.0 0.00 0.03 0.00 92 1010.5
20260509084548 49 0 0.0 2.0 0.00 0.03 0.00 92 1010.6
20260509084039 49 0 0.0 2.0 0.00 0.03 0.00 92 1010.7
20260509083538 49 0 0.0 2.0 0.00 0.03 0.00 92 1010.6
20260509083058 49 0 0.0 2.0 0.00 0.03 0.00 92 1010.6
20260509082539 49 0 0.0 2.0 0.00 0.03 0.00 92 1010.7
20260509082041 49 0 0.0 0.0 0.00 0.03 0.00 92 1010.7
20260509081555 49 0 0.0 0.0 0.00 0.03 0.00 92 1010.9
20260509081040 49 0 0.0 0.0 0.00 0.03 0.00 92 1010.9
20260509080539 49 0 0.0 0.0 0.00 0.03 0.00 92 1011.0
20260509080048 49 0 0.0 0.0 0.00 0.03 0.00 91 1010.9
20260509075539 49 0 0.0 0.0 0.00 0.03 0.00 91 1011.1
20260509075037 49 0 0.0 0.0 0.00 0.03 0.00 91 1011.3
20260509074547 49 0 0.0 0.0 0.00 0.03 0.00 91 1011.4
20260509074039 49 0 0.0 0.0 0.00 0.03 0.00 91 1011.5
20260509073539 49 0 0.0 0.0 0.00 0.03 0.00 91 1011.5
20260509073049 49 0 0.0 0.0 0.00 0.03 0.00 91 1011.5
20260509072542 49 0 0.0 0.0 0.00 0.03 0.00 91 1011.4
20260509072040 49 0 0.0 1.0 0.00 0.03 0.00 91 1011.3
20260509071556 49 0 0.0 1.0 0.00 0.03 0.00 91 1011.3
20260509071038 49 0 0.0 1.0 0.00 0.03 0.00 91 1011.3
20260509070540 49 0 0.0 1.0 0.00 0.03 0.00 91 1011.3
20260509070047 49 0 0.0 1.0 0.00 0.03 0.00 91 1011.3
20260509065539 49 0 0.0 1.0 0.00 0.03 0.00 91 1011.3
20260509065043 49 0 0.0 1.0 0.00 0.03 0.00 91 1011.5
20260509064548 49 0 0.0 0.0 0.00 0.03 0.00 91 1011.7
20260509064040 49 0 0.0 0.0 0.00 0.03 0.00 91 1011.7
20260509063540 49 0 0.0 0.0 0.00 0.03 0.00 91 1011.6
20260509063056 49 0 0.0 0.0 0.00 0.03 0.00 91 1011.8
20260509062539 49 0 0.0 0.0 0.00 0.03 0.00 91 1011.8
20260509062039 49 0 0.0 0.0 0.00 0.03 0.00 91 1011.7
20260509061552 49 0 0.0 1.0 0.00 0.03 0.00 91 1011.8
20260509061039 49 0 0.0 1.0 0.00 0.03 0.00 91 1011.8
20260509060539 49 0 0.0 2.0 0.00 0.03 0.00 91 1011.9
20260509060058 50 0 0.0 2.0 0.00 0.03 0.00 91 1011.8
20260509055539 49 177 0.0 1.0 0.00 0.03 0.00 91 1011.9
20260509055039 50 202 0.0 1.0 0.00 0.03 0.00 91 1012.0
20260509054545 50 0 0.0 1.0 0.00 0.03 0.00 91 1012.1
20260509054039 50 0 0.0 1.0 0.00 0.03 0.00 91 1012.2
20260509053540 50 0 0.0 1.0 0.00 0.03 0.00 91 1012.3
20260509053111 50 0 0.0 1.0 0.00 0.03 0.00 91 1012.4
20260509052540 49 0 0.0 1.0 0.00 0.03 0.00 91 1012.4
20260509052038 50 202 0.0 1.0 0.00 0.03 0.00 91 1012.4
20260509051549 50 0 0.0 1.0 0.00 0.03 0.00 90 1012.7
20260509051039 50 0 0.0 0.0 0.00 0.03 0.00 90 1012.7
20260509050541 49 0 0.0 2.0 0.00 0.03 0.00 90 1012.8
20260509050056 49 0 0.0 2.0 0.00 0.03 0.00 90 1012.7
20260509045539 49 202 0.0 2.0 0.00 0.05 0.00 90 1012.5
20260509045039 49 0 0.0 0.0 0.00 0.05 0.00 90 1011.9
20260509044547 50 0 0.0 0.0 0.00 0.05 0.00 90 1012.0
20260509044039 50 0 0.0 0.0 0.00 0.05 0.00 90 1012.0
20260509043539 49 0 0.0 0.0 0.00 0.05 0.00 90 1012.0
20260509043102 49 0 0.0 0.0 0.00 0.05 0.00 89 1012.1
20260509042539 50 0 0.0 0.0 0.00 0.05 0.00 89 1012.2
20260509042042 50 0 0.0 0.0 0.00 0.05 0.00 89 1012.4
20260509041556 50 0 0.0 0.0 0.01 0.05 0.00 89 1012.2
20260509041040 50 0 0.0 0.0 0.01 0.05 0.00 89 1012.0
20260509040539 50 0 0.0 0.0 0.01 0.05 0.00 89 1012.0
20260509040055 50 0 0.0 0.0 0.01 0.05 0.00 89 1011.9
20260509035538 50 0 0.0 0.0 0.01 0.05 0.05 89 1011.8
20260509035040 50 0 0.0 0.0 0.01 0.05 0.05 89 1011.6
20260509034601 50 0 0.0 0.0 0.01 0.05 0.05 89 1011.9
20260509034039 50 0 0.0 0.0 0.01 0.05 0.05 89 1011.9
20260509033539 50 0 0.0 0.0 0.01 0.05 0.05 89 1011.9
20260509033045 50 0 0.0 0.0 0.01 0.05 0.05 88 1012.0
20260509032539 50 0 0.0 0.0 0.01 0.05 0.05 88 1012.2
20260509032038 50 0 0.0 0.0 0.01 0.05 0.05 88 1012.2
20260509031602 50 0 0.0 0.0 0.00 0.04 0.04 88 1012.3
20260509031040 50 0 0.0 0.0 0.00 0.04 0.04 88 1012.4
20260509030540 50 0 0.0 0.0 0.00 0.04 0.04 88 1012.4
20260509030046 50 0 0.0 0.0 0.00 0.04 0.04 88 1012.2
20260509025539 50 0 0.0 0.0 0.00 0.04 0.04 88 1012.2
20260509025039 50 0 0.0 0.0 0.00 0.04 0.04 88 1012.3
20260509024550 50 0 0.0 0.0 0.00 0.04 0.04 88 1012.2
20260509024039 50 0 0.0 0.0 0.00 0.04 0.04 88 1012.2
20260509023540 50 0 0.0 0.0 0.00 0.04 0.04 88 1012.5
20260509023050 50 0 0.0 0.0 0.00 0.04 0.04 88 1012.4
20260509022539 50 0 0.0 0.0 0.00 0.04 0.04 87 1012.5
20260509022038 50 0 0.0 0.0 0.00 0.04 0.04 87 1012.5
20260509021548 50 0 0.0 0.0 0.00 0.04 0.04 87 1012.3
20260509021041 51 0 0.0 0.0 0.00 0.04 0.04 87 1012.3
20260509020542 51 0 0.0 0.0 0.00 0.04 0.04 87 1012.2
20260509020053 51 0 0.0 0.0 0.00 0.04 0.04 87 1012.1
20260509015539 51 0 0.0 0.0 0.00 0.04 0.04 87 1012.2
20260509015040 51 0 0.0 0.0 0.00 0.04 0.04 87 1012.1
20260509014556 51 0 0.0 0.0 0.00 0.04 0.04 86 1012.2
20260509014038 51 0 0.0 0.0 0.00 0.04 0.04 86 1012.1
20260509013539 51 0 0.0 0.0 0.00 0.04 0.04 86 1012.0
20260509013054 51 0 0.0 0.0 0.00 0.04 0.04 86 1011.9
20260509012539 51 0 0.0 0.0 0.00 0.04 0.04 86 1011.9
20260509012039 52 0 0.0 0.0 0.00 0.04 0.04 86 1011.9
20260509011548 52 0 0.0 0.0 0.00 0.04 0.04 85 1011.9
20260509011039 52 0 0.0 0.0 0.00 0.04 0.04 85 1011.9
20260509010543 52 0 0.0 0.0 0.00 0.04 0.04 85 1011.8
20260509010053 53 0 0.0 0.0 0.00 0.04 0.04 84 1011.8
20260509005541 53 0 0.0 0.0 0.00 0.04 0.04 84 1011.7
20260509005039 53 0 0.0 0.0 0.00 0.04 0.04 84 1011.7
20260509004543 53 0 0.0 0.0 0.00 0.04 0.04 83 1011.6
20260509004039 53 0 0.0 0.0 0.00 0.04 0.04 83 1011.5
20260509003540 54 0 0.0 0.0 0.00 0.04 0.04 82 1011.5
20260509003051 54 0 0.0 0.0 0.00 0.04 0.04 82 1011.5
20260509002538 54 0 0.0 0.0 0.00 0.04 0.04 82 1011.5
20260509002039 54 0 0.0 0.0 0.00 0.04 0.04 82 1011.4
20260509001553 54 0 0.0 0.0 0.00 0.04 0.04 82 1011.4
20260509001038 54 0 0.0 0.0 0.00 0.04 0.04 82 1011.3
20260509000537 54 0 0.0 0.0 0.00 0.04 0.04 81 1011.4
20260509000055 54 0 0.0 0.0 0.00 0.04 0.04 81 1011.5
20260508235537 54 0 0.0 0.0 0.00 0.04 0.04 81 1011.5
20260508235036 54 0 0.0 0.0 0.00 0.04 0.04 81 1011.4
20260508234548 55 0 0.0 0.0 0.00 0.04 0.04 80 1011.1
20260508234040 55 0 0.0 0.0 0.00 0.04 0.04 80 1010.9
20260508233539 55 0 0.0 0.0 0.00 0.04 0.04 80 1010.9
20260508233057 55 0 0.0 1.0 0.00 0.04 0.04 79 1010.9
20260508232537 56 0 0.0 2.0 0.00 0.04 0.04 78 1011.0
20260508232037 56 300 0.0 2.0 0.00 0.04 0.04 76 1011.0
20260508231548 56 300 0.0 2.0 0.00 0.04 0.04 74 1011.1
20260508231038 57 0 0.0 2.0 0.00 0.04 0.04 72 1011.2
20260508230537 57 300 0.0 2.0 0.00 0.04 0.04 70 1011.3
20260508230056 57 0 0.0 3.0 0.00 0.04 0.04 69 1011.3
20260508225539 58 297 0.0 3.0 0.00 0.04 0.04 69 1011.3
20260508225037 58 301 1.0 5.0 0.00 0.04 0.04 68 1011.3
20260508224549 58 285 0.0 6.0 0.00 0.04 0.04 68 1011.3
20260508224037 59 0 1.0 6.0 0.00 0.04 0.04 66 1011.2
20260508223538 59 0 0.0 4.0 0.00 0.04 0.04 64 1011.1
20260508223050 59 0 0.0 7.0 0.00 0.04 0.04 63 1010.8